Regional Weather Roundup
Issued by NWS Cleveland, OH

Home | Current Version | Previous Version | Graphics & Text | Print | Product List | Glossary On
Versions: 1 2 3 4 5 6 7 8 9 10 11 12 13 14 15 16 17 18 19 20 21 22 23 24 25 26 27 28 29 30 31 32 33 34 35 36 37 38 39 40 41 42 43 44 45 46 47 48 49 50
000
ASUS41 KCLE 301712
RWRCLE
OHIO REGIONAL WEATHER ROUNDUP
NATIONAL WEATHER SERVICE WILMINGTON, OH
100 PM EDT SAT APR 30 2016

NOTE: "FAIR" INDICATES FEW OR NO CLOUDS BELOW 12,000 FEET WITH NO
SIGNIFICANT WEATHER AND/OR OBSTRUCTIONS TO VISIBILITY.

OHZ001>008-015>018-024>027-034-035-043-044-301800-
   NORTHWEST OHIO

CITY           SKY/WX    TMP DP  RH WIND       PRES   REMARKS
DEFIANCE       LGT RAIN  52  39  61 E9        30.09F
FINDLAY        LGT RAIN  53  42  66 E9        30.07S
TOLEDO EXPRESS PTSUNNY   52  38  58 E10       30.10R
TOLEDO EXEC    FAIR      51  38  60 E12       30.12R
LIMA           LGT RAIN  48  45  89 E5        30.08R FOG
$$

OHZ009>014-019>023-028>033-038-089-301800-
   NORTHEAST OHIO

CITY           SKY/WX    TMP DP  RH WIND       PRES   REMARKS
CLE-HOPKINS    CLOUDY    56  45  66 VRB6      30.12F
CLE-LAKEFRONT  FAIR      50  45  83 N12       30.11F
CUY CO. ARPT   PTSUNNY   59  46  63 NE7       30.11S
LORAIN-ELYRIA  FAIR      51  42  71 SE6       30.10F
ASHTABULA      CLOUDY    56  45  66 SE9       30.12F
AKRON-CANTON   CLOUDY    57  45  64 VRB5      30.09F
WOOSTER        FAIR      50  45  83 SE6       30.09F
MANSFIELD      PTSUNNY   47  43  86 E7        30.08F
YOUNGSTOWN     CLOUDY    58  46  64 E9        30.10S
$$

OHZ042-051>053-060>062-070>072-077>081-301800-
  SOUTHWEST OHIO

CITY           SKY/WX    TMP DP  RH WIND       PRES   REMARKS
CINC-COVINGTON LGT RAIN  55  54  96 E10       30.01F FOG
CINC-LUNKEN    LGT RAIN  55  54  96 NE7       30.03F FOG
HAMILTON       LGT RAIN  54  52  93 E9        30.04F FOG
DAYTON         LGT RAIN  51  49  92 SE10      30.06F FOG
WRIGHT-PAT AFB LGT RAIN  52  52 100 SE5       30.07S FOG
DAYTON GENERAL LGT RAIN  52  48  86 E9        30.03F FOG
WILMINGTON     LGT RAIN  52  49  89 E5        30.06F FOG
$$

OHZ036-037-039>041-045>050-054>059-063>069-073>076-082>088-301800-
  CENTRAL AND SOUTHEAST OHIO

CITY           SKY/WX    TMP DP  RH WIND       PRES   REMARKS
COLUMBUS       LGT RAIN  53  48  83 CALM      30.07R
OSU AIRPORT    LGT RAIN  53  48  83 E3        30.07R
BOLTON FIELD   LGT RAIN  54  50  87 SE3       30.08R
RICKENBACK AFB LGT RAIN  53  49  85 S5        30.09R
NEWARK         LGT RAIN  57  48  72 CALM      30.07R
MARION         CLOUDY    52  45  77 E6        30.08S
LANCASTER      LGT RAIN  55  49  80 SE3       30.08R
ZANESVILLE     CLOUDY    60  48  64 E5        30.07S
NEW PHILLY     FAIR      56  45  66 CALM      30.08F
$$




USA.gov is the U.S. government's official web portal to all federal, state and local government web resources and services.